sat.trackr.live / text

‹ back to catalog

STARLINK-11317 [DTC]

NORAD 61248 · 2024-175F

PAYLOAD ACTIVE UNKNOWN

§ Identity

Operator
Country
US
Launch date
2024-09-25
Launch site
AFWTR
Launch vehicle
Mass (kg)
RCS (m²)

Purposes: comms

External: N2YO · Heavens-Above · Gunter

§ Orbital elements

Epoch: 2026-09-21T01:12:33.080832Z

Period
91.74 min
Inclination
53.1611°
Eccentricity
0.0001552
Mean motion
15.69694692 rev/d
Perigee alt
358.7 km
Apogee alt
360.8 km
Semi-major
6,737.9 km
B*
-1.6956e-5
RAAN
172.9468°
Arg perigee
53.8148°
Mean anomaly
306.3014°
Rev number
11,405

§ Raw data

STARLINK-11317 [DTC]1 61248U 24175F   26264.05038288 -.00002641  00000+0 -16956-4 0  99992 61248  53.1611 172.9468 0001552  53.8148 306.3014 15.69694692114054

JSON: /api/v1/satellites/61248 · /tle

For live sub-satellite position, see the globe view (requires WebGL).

§ Visibility from observer

Set your observer location to see the next 7 days of passes ≥ 10°. The values pass through the URL so the page stays shareable.

No JS? Fill the form by hand. The geolocation button needs JavaScript.